Probability
0 0 0 0 0 0 0 0 0 0 0 0 0 0 0 0 0 0 0 0 0 0 1 3 4 4 4 3 1 1 3 5 5 5 6 7 9 10 11 13 13 16 22 28
0 0 0 0 0 0 0 0 0 0 0 0 0 0 0 0 0 0 0 0 0 0 0 1 2 2 2 1 0 1 3 4 3 3 3 4 5 6 7 9 11 12 18 24
0 0 0 0 0 0 0 0 0 0 0 0 0 0 0 0 0 0 0 0 0 0 0 0 0 0 0 0 0 0 1 1 1 1 1 1 1 1 3 5 6 7 11 15
0 0 0 0 0 0 0 0 0 0 0 0 0 0 0 0 0 0 0 0 0 0 0 0 0 0 0 0 0 0 0 0 0 0 0 0 0 0 1 1 2 3 5 7
0 0 0 0 0 0 0 0 0 0 0 0 0 0 0 0 0 0 0 0 0 0 0 0 0 0 0 0 0 0 0 0 0 0 0 0 0 0 0 0 0 1 1 2
0 0 0 0 0 0 0 0 0 0 0 0 0 0 0 0 0 0 0 0 0 0 0 0 0 0 0 0 0 0 0 0 0 0 0 0 0 0 0 0 0 0 0 0
0 0 0 0 0 0 0 0 0 0 0 0 0 0 0 0 0 0 0 0 0 0 0 0 0 0 0 0 0 0 0 0 0 0 0 0 0 0 0 0 0 0 0 0
0 0 0 0 0 0 0 0 0 0 0 0 0 1 0 0 0 0 0 0 0 0 0 0 0 0 0 0 0 0 0 0 0 0 0 0 0 0 0 0 0 0 0 0
0 0 0 0 0 0 0 0 0 0 0 0 1 2 2 0 0 0 0 0 0 0 0 0 0 0 0 0 0 0 0 0 0 0 0 0 0 0 0 0 0 0 0 0
0 0 0 0 0 0 0 0 0 0 0 0 0 2 2 1 0 0 0 0 0 0 0 0 0 0 0 0 0 0 0 0 0 0 0 0 0 0 0 0 0 0 0 0
0 0 0 0 0 0 0 0 0 0 0 0 0 0 1 0 0 0 0 0 0 0 0 0 0 0 0 0 0 0 0 0 0 0 0 0 0 0 0 0 0 0 0 0
0 0 0 0 0 0 0 0 0 0 0 0 0 0 0 0 0 0 0 0 0 0 0 0 0 0 0 0 0 0 0 0 0 0 0 0 0 0 0 0 0 0 0 0
0 0 0 0 0 0 0 0 0 0 0 0 0 0 0 0 0 0 0 0 0 0 0 0 0 0 0 0 0 0 0 0 0 0 0 0 0 0 0 0 0 0 0 0
0 0 0 0 0 0 0 0 0 0 0 0 0 0 0 0 0 0 0 0 0 0 0 0 0 0 0 0 0 0 0 0 0 0 0 0 0 0 0 0 0 0 0 0
0 0 0 0 0 0 0 0 0 0 0 0 0 0 0 0 0 0 0 0 0 0 0 0 0 0 0 0 0 0 0 0 0 0 0 0 0 0 0 0 0 0 0 0
0 0 0 0 0 0 0 0 0 0 0 0 0 0 0 0 0 0 0 0 0 0 0 0 0 0 0 0 0 0 0 0 0 0 0 0 0 0 0 0 0 0 0 0
0 0 0 0 0 0 0 0 0 0 0 0 0 0 0 0 0 0 0 0 0 0 0 0 0 0 0 0 0 0 0 0 0 0 0 0 0 0 0 0 0 0 0 0
0 0 0 0 0 0 0 0 0 0 0 0 0 0 0 0 0 0 0 0 0 0 0 0 0 0 0 0 0 0 0 0 0 0 0 0 0 0 0 0 0 0 0 0
0 0 0 0 0 0 0 0 0 0 0 0 0 0 0 0 0 0 0 0 0 0 0 0 0 0 0 0 0 0 0 0 0 0 0 0 0 0 0 0 0 0 0 0
0 0 0 0 0 0 0 0 0 0 0 0 0 0 0 0 0 0 0 0 0 0 0 0 0 0 0 0 0 0 0 0 0 0 0 0 0 0 0 0 0 0 0 0
0 0 0 0 0 0 0 0 0 0 0 0 0 0 0 0 0 0 0 0 0 0 0 0 0 0 0 0 0 0 0 0 0 0 0 0 0 0 0 0 0 0 0 0
0 0 0 0 0 0 0 0 0 0 0 0 0 0 0 0 0 0 0 0 0 0 0 0 0 0 0 0 0 0 0 0 0 0 0 0 0 0 0 0 0 0 0 0
0 0 0 0 0 0 0 0 0 0 0 0 0 0 0 0 0 0 0 0 0 0 0 0 0 0 0 0 0 0 0 0 0 0 0 0 0 0 0 0 0 0 0 0
0 0 0 0 0 0 0 0 0 0 0 0 0 0 0 0 0 0 0 0 0 0 0 0 0 0 0 0 0 0 0 0 0 0 0 0 0 0 0 0 0 0 0 0
0 0 0 0 0 0 0 0 0 0 0 0 0 0 0 0 0 0 0 0 0 0 0 0 0 0 0 0 0 0 0 0 0 0 0 0 0 0 0 0 0 0 0 0
0 0 0 0 0 0 0 0 0 0 0 0 0 0 0 0 0 0 0 0 0 0 0 0 0 0 0 0 0 0 0 0 0 0 0 0 0 0 0 0 0 0 0 0
Wind_Speed
4 7 3 3 5 6 5 4 1 7 5 6 10 10 7 6 6 7 7 7 8 8 8 7 7 7 7 8 8 8 9 8 7 7 7 7 6 5 5 4 5 6 6 6
7 6 1 3 3 5 6 6 2 7 6 5 9 9 7 6 6 6 6 7 7 8 8 8 7 8 9 9 8 8 9 9 8 7 5 5 6 6 5 5 5 7 7 7
8 4 2 6 7 7 7 7 3 5 7 7 9 9 8 7 6 6 6 6 7 7 7 7 8 8 8 8 9 8 8 8 8 7 6 5 5 5 5 6 5 7 8 7
4 2 3 7 6 7 4 3 2 6 10 6 9 3 8 7 7 6 5 5 5 4 5 6 7 8 9 9 9 9 9 9 8 8 8 9 7 7 7 6 6 7 7 7
3 3 4 3 3 5 4 3 3 7 8 4 6 4 8 6 6 6 5 3 2 2 4 6 8 9 10 11 11 10 10 10 10 9 9 9 10 9 7 7 6 7 5 5
3 1 3 4 2 1 2 4 5 7 8 5 1 5 8 5 4 5 4 2 1 3 5 7 9 11 11 12 12 12 12 12 12 12 11 11 12 11 11 10 9 7 6 4
4 5 4 3 3 4 5 6 4 4 4 2 3 2 7 6 2 0 1 2 4 5 7 9 11 13 13 13 13 12 12 13 13 14 13 13 13 13 13 12 10 8 8 7
2 3 7 7 6 4 3 7 6 7 7 2 4 3 7 3 1 2 3 4 5 7 9 10 12 13 13 12 12 12 14 14 15 15 14 13 13 12 12 12 11 11 9 9
5 3 5 6 7 6 3 4 6 8 6 7 3 7 7 3 2 3 4 5 7 8 10 12 13 13 12 12 13 14 15 15 16 16 15 14 14 13 13 13 13 12 10 10
5 3 4 2 1 7 6 4 4 7 8 8 4 4 5 4 2 3 5 7 8 10 12 13 13 13 13 14 15 15 16 16 16 16 15 13 15 15 14 14 14 14 14 13
5 4 2 3 6 7 3 3 6 5 6 9 9 5 7 3 4 6 6 8 10 13 14 14 14 14 14 15 16 16 16 17 16 16 15 15 15 15 15 14 15 14 13 13
4 5 3 6 5 4 6 6 6 6 5 5 8 4 8 3 5 7 9 11 13 14 15 15 16 15 15 17 17 17 17 17 17 16 16 16 16 16 16 16 16 15 15 14
2 3 4 8 7 4 2 4 4 3 4 5 8 7 5 2 6 8 10 13 14 15 16 16 15 15 16 16 17 17 17 17 16 16 16 16 16 17 16 16 16 16 16 16
4 2 6 7 7 4 0 0 2 6 6 8 9 13 11 9 9 10 12 14 15 15 15 15 15 15 15 16 16 16 16 16 16 16 16 16 16 16 16 16 16 16 16 16
5 0 2 3 2 3 4 2 2 4 6 9 12 14 12 10 9 11 13 14 16 15 15 16 16 15 16 16 16 16 15 15 15 16 16 17 17 17 17 16 16 16 16 16
2 2 3 3 3 4 6 5 5 3 5 9 12 12 7 6 9 12 14 15 16 15 16 17 17 17 16 16 15 15 15 15 15 16 16 16 17 17 17 17 17 16 16 16
3 4 6 7 1 8 8 7 6 4 7 9 11 12 12 11 12 14 15 14 14 16 17 17 17 16 15 15 14 14 14 15 15 15 16 16 16 17 17 18 17 17 16 16
4 5 5 7 5 8 5 5 2 5 9 7 9 11 11 11 12 13 11 10 14 16 16 16 16 15 14 14 14 13 14 14 15 15 15 15 16 17 17 17 17 17 14 14
5 6 7 7 10 10 5 6 3 6 9 4 8 10 10 11 13 8 5 9 13 15 15 14 15 15 14 14 13 14 15 14 15 15 15 16 17 17 17 17 17 15 14 13
5 6 8 8 11 11 2 8 2 4 4 3 6 9 11 12 12 9 12 14 14 14 14 14 14 14 13 13 13 14 15 15 15 15 16 16 16 16 17 17 16 13 12 12
7 7 9 10 11 7 8 8 5 6 8 7 7 8 10 10 11 13 15 14 14 15 15 14 13 13 12 12 13 14 15 15 15 15 16 16 16 16 16 15 13 12 11 11
7 7 6 6 7 2 11 7 5 6 4 5 7 8 9 10 12 13 13 13 14 15 15 14 13 13 12 12 12 14 15 15 15 15 16 16 16 14 13 14 13 11 9 9
6 6 5 5 5 3 8 7 4 4 6 6 7 8 8 11 12 13 13 13 14 15 14 13 13 14 13 12 11 14 15 14 14 15 16 16 16 14 13 12 12 10 8 7
5 2 7 8 9 6 8 10 9 7 7 6 6 7 9 11 12 13 12 13 14 14 14 13 13 14 14 13 12 12 14 13 13 15 15 14 14 13 12 10 8 8 7 7
9 5 8 11 12 9 10 11 10 8 8 7 6 7 8 10 12 12 12 13 13 14 13 13 13 13 15 14 13 13 12 12 13 14 14 14 13 12 11 10 7 8 7 5
9 10 11 10 6 7 5 5 6 8 8 7 7 7 8 9 10 12 12 12 13 14 14 13 14 14 15 15 14 13 12 12 13 12 12 11 10 10 10 9 8 4 4 4
Wind_Direction
212 242 247 8 350 342 316 297 38 89 91 80 94 93 81 74 75 74 69 67 70 70 69 63 58 55 59 52 46 36 28 24 10 10 359 353 347 336 339 336 335 317 297 274
236 236 321 322 291 269 265 264 177 116 117 112 113 102 95 83 74 67 72 77 79 80 76 67 61 57 50 44 34 30 26 21 12 13 354 347 335 328 342 344 351 344 332 312
291 324 339 270 271 264 259 277 275 151 147 160 153 132 125 117 113 109 99 89 81 72 64 56 45 38 32 24 15 12 7 3 5 352 344 346 336 327 349 350 353 352 342 335
289 14 286 271 271 278 276 2 285 178 199 185 221 186 136 137 138 129 120 111 95 74 49 28 15 10 4 358 354 352 347 346 343 331 338 340 333 334 338 330 343 336 340 341
28 2 308 295 0 313 11 350 242 213 232 222 206 239 132 164 162 146 138 124 85 34 2 352 348 346 343 340 338 336 336 332 328 322 312 305 310 316 312 314 316 313 322 326
48 51 341 353 356 332 157 187 182 212 229 219 140 265 132 151 145 144 153 166 281 310 317 324 328 329 328 328 328 329 330 327 324 315 307 298 298 297 298 296 299 295 298 294
116 94 60 336 243 169 236 274 257 232 234 103 131 267 93 96 90 299 237 246 273 293 306 316 323 325 322 322 326 328 330 329 326 320 313 305 297 291 283 281 284 282 284 281
283 99 42 19 354 345 358 323 335 324 328 1 165 94 99 83 59 277 272 277 283 296 313 322 325 323 319 321 324 327 328 325 322 319 317 311 301 292 290 289 289 285 279 278
339 63 82 44 30 335 329 4 351 298 291 289 124 122 129 151 225 257 272 280 290 308 315 317 323 323 320 317 319 322 322 320 320 319 315 306 305 302 298 295 282 277 274 273
343 303 85 70 207 55 28 358 311 319 327 314 300 174 136 155 305 282 280 294 306 310 312 319 323 323 322 319 318 318 318 319 318 316 317 316 316 309 304 297 293 289 285 278
349 300 100 89 37 25 46 34 345 328 342 322 322 30 86 37 327 310 307 310 315 318 319 321 320 323 322 320 319 320 320 318 316 315 316 314 310 309 305 299 293 287 281 279
0 313 80 92 86 33 50 22 356 339 347 318 308 29 106 20 321 306 310 316 319 320 319 320 321 322 321 321 321 319 319 316 315 315 313 309 307 304 302 299 299 296 288 279
10 273 196 169 168 160 71 46 16 336 294 321 318 358 103 304 296 296 306 318 322 321 321 321 320 322 320 320 318 317 315 315 316 315 311 309 307 305 303 302 299 296 291 283
293 4 346 15 25 9 280 33 334 305 326 329 333 328 331 329 314 313 321 322 320 319 320 320 320 319 319 316 315 314 314 316 316 314 312 309 308 307 305 302 299 295 291 287
268 98 28 20 353 296 301 282 284 329 343 327 329 321 330 344 332 322 317 317 318 321 322 321 320 320 318 317 317 315 315 316 316 313 309 309 309 308 305 303 301 298 294 289
302 303 278 243 218 267 267 253 242 277 315 318 315 323 360 332 312 315 319 322 323 323 322 322 321 320 320 319 317 317 314 314 313 309 308 310 309 307 306 304 300 296 293 291
220 260 285 298 281 271 257 212 221 275 321 317 315 326 332 317 321 321 318 318 322 323 322 320 320 319 319 318 318 315 314 312 309 306 306 307 308 308 305 304 303 299 296 293
245 261 275 294 282 275 60 111 210 289 306 308 306 314 321 316 317 303 298 313 321 320 319 318 317 318 317 319 319 316 311 308 306 306 308 311 311 308 306 304 301 297 294 290
246 249 276 287 287 293 146 174 223 297 308 314 315 318 316 319 307 307 27 329 316 317 317 314 314 315 316 317 320 316 309 308 307 309 313 313 311 309 306 302 299 298 294 287
192 231 261 272 290 296 69 129 126 275 275 36 317 313 317 318 312 337 349 331 323 321 317 315 313 312 314 322 321 313 309 309 308 312 313 312 310 307 305 303 301 297 291 286
220 228 251 272 279 285 113 137 191 277 352 357 324 315 311 317 314 319 322 322 322 319 316 314 311 312 319 321 316 308 307 305 309 311 310 310 309 308 306 306 303 300 294 287
276 271 256 272 276 307 133 165 244 325 339 314 313 309 310 310 311 314 318 320 320 319 318 317 313 314 318 319 315 309 307 308 310 307 307 310 311 312 311 310 307 304 300 291
257 298 306 280 296 53 185 216 251 287 287 299 304 310 312 310 315 319 320 321 321 320 319 316 314 314 317 321 318 310 309 310 307 304 305 308 311 311 309 310 312 309 303 294
228 210 263 267 270 252 226 234 244 248 263 283 293 299 306 309 316 319 320 321 320 320 319 318 317 315 317 320 318 310 308 309 305 302 304 306 308 309 311 311 311 312 312 308
294 239 254 260 274 270 236 230 236 236 241 257 269 283 299 308 312 317 316 318 320 319 319 318 316 314 314 317 315 314 312 311 305 302 301 303 305 309 308 309 312 313 316 317
260 248 252 270 283 248 240 198 210 219 229 245 263 279 291 302 308 312 313 316 317 318 319 318 318 317 316 315 314 317 319 315 308 303 302 300 303 306 308 312 314 284 265 294